CZ-4 DEB

Satellite information

Favourite Embed

Satellite Type and Status

DEBRISIN ORBIT

Key statistics

Satellite CZ-4 DEB at a glance.

Uptime

12726

Days in orbit

Revolutions

≈ 14.2

Per day

Orbit

SSO

Sun Synchronous Orbit

Inclination

98.7

Latest

Satellite identification and parameters

Extended collection of information and parameters for CZ-4 DEB.

Object identification

Identified? True

Debris? True

Object name: CZ-4 DEB

International designator: 1990-081H

Object number (NORAD): 20798

Object ID (CCSDS): 20798

Country: PEOPLES REPUBLIC OF CHINA (PRC)

Current information (Y/N): Y

RCS size: SMALL

Orbital parameters

Period: 101.312 minutes

Inclination: 98.7369 deg

SMA: 7198.91 km

Apoapsis: 826.141 km

Periapsis: 815.409 km

RAAN: 173.4597 deg

Eccentricy: 0.0007454

Argument of periapsis: 220.0437 deg

Mean anomaly: 140.0191 deg

Mean motion: 14.21355276 rev/day

Mean motion (dot): 0.00000637 rev/day2

B* drag term: 0.00031213 1/REarth

Two-line elements (TLE)

Creation date: July 6, 2025, 6:05 p.m.

Reference frame: TEME

Reference center: EARTH

Epoch: July 6, 2025, 11:57 a.m. UTC

TLE line 0: 0 CZ-4 DEB

TLE line 1: 1 20798U 90081H 25187.49845616 .00000637 00000-0 31213-3 0 9999

TLE line 2: 2 20798 98.7369 173.4597 0007454 220.0437 140.0191 14.21355276795579

Live tracking on map

Real-time ground track for satellite CZ-4 DEB.

In-orbit conjunctions

A list of the most updated potential collisions computed for object CZ-4 DEB.

Target Orbit TCA Probability of collision Miss distance Type
SL-16 DEB LEO 2025-04-14 12:58:39 0.0001136666 278.0 (m) DEBRIS
SL-16 DEB LEO 2025-03-05 05:53:11 0.000346213 133.0 (m) DEBRIS
SL-16 DEB LEO 2024-11-13 01:52:26 0.0009306772 173.0 (m) DEBRIS

Associated space launch

Chinese polar orbiting meteorological satellite

CZ-4 DEB was lifted into orbit during the mission ‘Long March 4A | Feng Yun 1B’, on board a Long March 4A space rocket.

The launch took place on Sept. 3, 1990, 12:53 a.m. from Launch Complex 7.

For more information about the launch, click the button.

Launch to space Long March 4A | Feng Yun 1B
Long March 4A | Feng Yun 1B

Agency: N/A

Status: Launch Successful

Launch date: Sept. 3, 1990, 12:53 a.m. UTC

Rocket: Long March 4A

Launch pad: Launch Complex 7

Location: Taiyuan Satellite Launch Center, People's Republic of China

...

Latest news about this satellite

There are no fresh news available about this satellite. Check back as we update our databases every day.


Newsletter sign-up

Weekly statistics, charts and insights to help you stay on top of the space industry.